Weather History for Mazatlan Airport, Mexico

Change the Weather History Date:

Wednesday, October 21, 2009

  Actual Average Record
Temperature  
Mean Temperature 76 °F -  
Max Temperature 82 °F 86 °F 93 °F (2000)
Min Temperature 71 °F 68 °F 60 °F (1997)
Cooling Degree Days 12    
Growing Degree Days 26 (Base 50)    
Moisture  
Dew Point 71 °F    
Average Humidity 86    
Maximum Humidity 94    
Minimum Humidity 66    
Precipitation  
Precipitation 0.00 in - - ()
Sea Level Pressure  
Sea Level Pressure 29.61 in    
Wind  
Wind Speed 17 mph ()    
Max Wind Speed 39 mph    
Max Gust Speed 61 mph    
Visibility 8.4 miles    
Events Rain , Thunderstorm    
Averages and records for this station are not official NWS values.
T = Trace of Precipitation, MM = Missing Value Source: Averaged Metar Reports

Daily Weather History Graph

Daily Weather History Graph

Search for Another Location

Airport:

Trip Planner

Search our weather history database for the weather conditions in past years. The results will help you decide how hot, cold, wet, or windy it might be!

Date:

Astronomy

Oct. 21, 2009 Rise Set
Actual Time 7:04 AM MDT 6:34 PM MDT
Civil Twilight 6:41 AM MDT 6:56 PM MDT
Nautical Twilight 6:15 AM MDT 7:23 PM MDT
Astronomical Twilight 5:49 AM MDT 7:49 PM MDT
Moon 10:24 AM MDT (10/21) 9:11 PM MDT (10/21)
Length of Visible Light 12h 15m
Length of Day
11h 29m
Waxing Crescent, 13% of the Moon is Illuminated
Oct 21
Waxing Crescent
Oct 25
First Quarter
Nov 2
Full
Nov 9
Last Quarter
Nov 16
New

Hourly Weather History & Observations

Time (MDT) Temp. Heat Index Dew Point Humidity Pressure Visibility Wind Dir Wind Speed Gust Speed Precip Events Conditions
12:49 AM 71.6 °F - 69.8 °F 94% 29.60 in 8.0 mi NNE 11.5 mph - N/A Rain Light Rain
1:50 AM 71.6 °F - 69.8 °F 94% 29.58 in 6.0 mi NNE 6.9 mph - N/A Rain Rain
2:55 AM 73.4 °F - 71.6 °F 94% 29.62 in 8.0 mi East 17.3 mph - N/A Rain , Thunderstorm Light Thunderstorms and Rain
3:08 AM 75.2 °F - 73.4 °F 94% 29.54 in 5.0 mi ESE 23.0 mph 41.4 mph N/A Rain , Thunderstorm Thunderstorms and Rain
3:48 AM 75.2 °F - 73.4 °F 94% 29.50 in 6.0 mi SE 27.6 mph 41.4 mph N/A Rain , Thunderstorm Light Thunderstorms and Rain
4:42 AM 77.0 °F - 73.4 °F 89% 29.47 in 8.0 mi ESE 27.6 mph 41.4 mph N/A Rain , Thunderstorm Light Thunderstorms and Rain
5:53 AM 75.2 °F - 71.6 °F 89% 29.41 in 8.0 mi ESE 34.5 mph 51.8 mph N/A Rain Light Rain
6:05 AM 73.4 °F - 69.8 °F 88% 29.31 in 4.0 mi ESE 36.8 mph 54.1 mph N/A Rain , Thunderstorm Heavy Thunderstorms and Rain
6:26 AM 73.4 °F - 71.6 °F 94% 29.23 in 4.0 mi ESE 39.1 mph 61.0 mph N/A Rain , Thunderstorm Thunderstorms and Rain
6:45 AM 77.0 °F - 75.2 °F 94% 29.24 in 4.0 mi SSE 38.0 mph 57.5 mph N/A Rain , Thunderstorm Thunderstorms and Rain
7:16 AM 77.0 °F - 75.2 °F 94% 29.31 in 6.0 mi South 35.7 mph 48.3 mph N/A Rain , Thunderstorm Light Thunderstorms and Rain
7:42 AM 75.2 °F - 73.4 °F 94% 29.32 in 3.0 mi South 28.8 mph 48.3 mph N/A Rain Light Rain
8:14 AM 73.4 °F - 71.6 °F 94% 29.43 in 3.0 mi SW 24.2 mph 36.8 mph N/A Rain Light Rain
8:49 AM 73.4 °F - 68.0 °F 83% 29.53 in 3.0 mi WSW 29.9 mph - N/A Rain Light Rain
9:48 AM 73.4 °F - 66.2 °F 78% 29.72 in 3.0 mi West 21.9 mph 34.5 mph N/A Rain Light Rain
10:34 AM 71.6 °F - 69.8 °F 94% 29.78 in 2.5 mi WSW 23.0 mph - N/A Rain Rain
10:53 AM 73.4 °F - 69.8 °F 88% 29.80 in 8.0 mi West 11.5 mph - N/A   Overcast
11:42 AM 77.0 °F - 69.8 °F 78% 29.83 in 10.0 mi North 3.5 mph - N/A   Overcast
12:50 PM 75.2 °F - 69.8 °F 83% 29.80 in 15.0 mi North 16.1 mph - N/A   Mostly Cloudy
1:41 PM 78.8 °F - 69.8 °F 74% 29.77 in 15.0 mi North 11.5 mph - N/A   Mostly Cloudy
2:44 PM 80.6 °F 83.9 °F 69.8 °F 70% 29.74 in 15.0 mi North 8.1 mph - N/A   Scattered Clouds
3:41 PM 82.4 °F 87.2 °F 71.6 °F 70% 29.73 in 15.0 mi North 11.5 mph - N/A   Scattered Clouds
4:50 PM 82.4 °F 86.3 °F 69.8 °F 66% 29.73 in 15.0 mi North 6.9 mph - N/A   Scattered Clouds
5:45 PM 80.6 °F 83.9 °F 69.8 °F 70% 29.73 in 15.0 mi North 5.8 mph - N/A   Scattered Clouds
6:42 PM 78.8 °F - 69.8 °F 74% 29.74 in 12.0 mi NW 4.6 mph - N/A   Scattered Clouds
7:45 PM 75.2 °F - 69.8 °F 83% 29.75 in 12.0 mi NNW 4.6 mph - N/A   Scattered Clouds
8:43 PM 75.2 °F - 71.6 °F 89% 29.77 in 10.0 mi Calm Calm - N/A   Scattered Clouds
9:41 PM 73.4 °F - 69.8 °F 88% 29.78 in 10.0 mi North 5.8 mph - N/A   Scattered Clouds
10:44 PM 71.6 °F - 69.8 °F 94% 29.80 in 10.0 mi Calm Calm - N/A   Mostly Cloudy
11:47 PM 71.6 °F - 69.8 °F 94% 29.80 in 10.0 mi NE 4.6 mph - N/A   Partly Cloudy